This is the latest recevied weather packets stored in our database for station/object K4IR. If no packets are shown the sender has not sent any weather packets the latest 1 day(s).
| Time | Temp. | Humidity | Pressure | Rain* | Wind** | Luminosity | Snow |
|---|---|---|---|---|---|---|---|
| 1778097288 | 26.67° C | 58% | 1014.6 hPa | 0 mm | - | 477 W/m² | - |
| 1778096688 | 26.11° C | 59% | 1014.6 hPa | 0 mm | - | 617 W/m² | - |
| 1778096088 | 27.22° C | 58% | 1014.6 hPa | 0 mm | - | 614 W/m² | - |
| 1778093085 | 26.67° C | 53% | 1015.7 hPa | 0 mm | - | 584 W/m² | - |
| 1778091878 | 27.22° C | 51% | 1016 hPa | 0 mm | - | 555 W/m² | - |
| 1778090672 | 27.78° C | 51% | 1016 hPa | 0 mm | - | 899 W/m² | - |
| 1778087065 | 27.22° C | 56% | 1016.2 hPa | 0 mm | - | 317 W/m² | - |
| 1778084054 | 26.67° C | 61% | 1017 hPa | 0 mm | - | 790 W/m² | - |
| 1778083454 | 25.56° C | 64% | 1016.8 hPa | 0 mm | - | 792 W/m² | - |
| 1778082849 | 26.11° C | 65% | 1016.9 hPa | 0 mm | - | 500 W/m² | - |
| 1778080526 | 25.56° C | 70% | 1016.8 hPa | 0 mm | - | 348 W/m² | - |
| 1778079325 | 25° C | 71% | 1016.6 hPa | 0 mm | - | 491 W/m² | - |
| 1778078725 | 25° C | 72% | 1016.9 hPa | 0 mm | - | 222 W/m² | - |
| 1778078120 | 24.44° C | 72% | 1016.9 hPa | 0 mm | - | 131 W/m² | - |
| 1778076911 | 23.89° C | 73% | 1016.7 hPa | 0 mm | - | 115 W/m² | - |
| 1778075706 | 23.89° C | 76% | 1016.9 hPa | 0 mm | - | 182 W/m² | - |
| 1778073903 | 23.33° C | 77% | 1016.5 hPa | 0 mm | - | 139 W/m² | - |
| 1778071487 | 21.67° C | 89% | 1016.5 hPa | 0 mm | - | 228 W/m² | - |
| 1778070883 | 20.56° C | 96% | 1016.5 hPa | 0 mm | - | 197 W/m² | - |
| 1778070283 | 20° C | 98% | 1016.4 hPa | 0 mm | - | 152 W/m² | - |
| 1778069072 | 16.67° C | 99% | 1016.3 hPa | 0 mm | - | 60 W/m² | - |
| 1778065448 | 13.33° C | 99% | 1015.6 hPa | 0 mm | - | 27 W/m² | - |
| 1778063032 | 12.22° C | 99% | 1015.9 hPa | 0 mm | - | 3 W/m² | - |
| 1778062430 | 12.22° C | 99% | 1015.9 hPa | 0 mm | - | 1 W/m² | - |
| 1778060617 | 12.22° C | 99% | 1015.6 hPa | 0 mm | - | 0 W/m² | - |
* Rain latest hour (hover to see other rain measurements)
** Current wind speed in m/s (hover to see current wind gust speed)